Location: Red Deer
(52.2681°N, 113.8112°W)
Time: 01:10:42
(UTC-06:00)

QB50P2 - Pass Details

Date: 26 May 2022
Orbit: 589 x 607 km, 97.9° (Epoch: 27 June)

Event Time Altitude Azimuth Distance (km) Brightness Sun altitude
Rises 02:11:11 0° 23° (NNE) 2,837 ? -16.1°
Reaches altitude 10° 02:13:41 10° 37° (NE) 1,929 ? -16.0°
Maximum altitude 02:17:09 25° 93° (E) 1,217 ? -15.9°
Enters shadow 02:19:36 15° 140° (SE) 1,611 ? -15.9°
